FENGYUN 1C DEB, 46443

Orbit data source: Space-Track

FENGYUN 1C DEB, 46443 is space debris in SSO originally from a launch on Mon, 10 May 1999 UTC launched from the Taiyaun Space Center, China (TSC). Fengyun 1C debris stems from the Chinese weather satellite Fengyun-1C, which was intentionally destroyed by a Chinese anti-satellite missile in 2007. This event dramatically increased the amount of space debris, with thousands of trackable fragments posing hazards to satellites and human spaceflight. The Fengyun 1C debris cloud has become a focal point in discussions about space sustainability and the need for international regulations to prevent the creation of new debris.

Loading next visibility...
Identifier
46443, 1999-025EYY
Orbit
SSO
Country
Flag of CNCN / PRC
Related business
Manufacturer
Unknown
Mission
Spacecraft
Bus & Motor
Unknown
Mass
Unknown
Launch date (UTC)
1999-05-10 (27 years ago)
Launch vehicle
Unknown
Launch site
Taiyaun Space Center, China (TSC)
Object type
Payload
Rocket body
Debris
Shape & HBR
Unknown shape, 0.1 m
Radar Cross Section
Small (<0.1 m²)

Expand to show TLE details & history
Last TLE update: 14 hours ago

TLE from 14 hours ago
0 FENGYUN 1C DEB
1 46443U 99025EYY 26237.70848552  .00001605  00000-0  85885-3 0  9994
2 46443  99.2024 316.2445 0095263 359.9893 151.4014 14.12374153632070
Epoch: 2026-08-25T17:00Z
TLE epoch observation values (Epoch: 2026-08-25T17:00:13.148Z)
Latitude
27.74091°
Longitude
-87.92012°
Altitude
915.261 km
Speed
7.366 km/s
True Right ascension
09h 24m 25s
True Declination
27° 36' 09"
Sunlit
Object was in daylight at epoch
Visualization orbit readout
Latitude
Unknown
Longitude
Unknown
Altitude
Unknown
Speed
Unknown
Apparent Right ascension
Unknown
Apparent Declination
Unknown
Sunlit
N/A
Visualization observer readout
Local Sidereal Time
22:14:47
Azimuth
Unknown
Elevation
Unknown
Doppler factor
Unknown
Orbital elements
Apogee altitude
917.294 km
Perigee altitude
779.609 km
Semi-major axis
7,226.588 km
Eccentricity
0.00953
Inclination
99.2024°
RAAN
316.2445°
Arg. of periapsis
359.9893°
True anomaly
151.91852°
Mean anomaly
151.4014°
Eccentric anomaly
151.6605°
Mean motion
3.533 °/min
Orbital period
101.9 mins
BSTAR
0.00085885
Loading maneuver chart data...
Computing Atmospheric mass density...
Loading historical data...
Loading historical data...
Loading historical data...
Loading historical data...
Loading historical data...
Loading historical data...
Loading historical data...

Documentation

Showing up to 5 results
|